Location: Bretagne
(43.8474°N, 0.4650°W)
Time: 06:05:00
(UTC+00:00)

Resurs 01 Rocket - Pass Details

Date: 15 January 2026
Orbit: 627 x 635 km, 97.7° (Epoch: 10 February)

Event Time Altitude Azimuth Distance (km) Brightness Sun altitude
Rises 19:48:50 0° 194° (SSW) 2,901 5.2 -31.7°
Reaches altitude 10° 19:51:17 10° 206° (SSW) 1,998 4.4 -32.2°
Maximum altitude 19:55:00 27° 265° (W) 1,203 3.5 -32.8°
Drops below altitude 10° 19:58:45 10° 324° (NW) 2,012 4.6 -33.5°
Sets 20:01:14 0° 336° (NNW) 2,925 5.3 -34.0°
